ATLAS 5 CENTAUR DEB, 46869

Orbit data source: Space-Track

ATLAS 5 CENTAUR DEB, 46869 is space debris in HEO originally from a launch on Wed, 17 Oct 2018 UTC launched from the Air Force Eastern Test Range (AFETR). Debris objects in space refer to the collection of defunct objects orbiting the Earth. Examples of debris include non-operational satellites, rocket bodies, and fragments generated from explosions, collisions, or faulty payload assembly.

Loading next visibility...
Identifier
46869, 2018-079EA
Orbit
HEO
Country
Flag of USUS
Related business
Flag of USUnited Launch Alliance/Lockheed Martin (US)
Manufacturer
ULA Decatur
Mission
Spacecraft
Bus & Motor
Unknown
Mass
Unknown
Launch date (UTC)
2018-10-17 (8 years ago)
Launch vehicle
Unknown
Launch site
Air Force Eastern Test Range (AFETR)
Object type
Payload
Rocket body
Debris
Shape & HBR
Unknown shape, 1.1 m
Radar Cross Section
RCS unknown

Expand to show TLE details & history
Last TLE update: 4 days ago

TLE from 4 days ago
0 ATLAS 5 CENTAUR DEB
1 46869U 18079EA  26169.16799065 -.00000123  00000-0  00000+0 0  9991
2 46869  13.3013  33.4420 4660485 320.1860  13.5081  1.83280088 37652
Epoch: 2026-06-18T04:01Z
TLE epoch observation values (Epoch: 2026-06-18T04:01:54.392Z)
Latitude
0.00017°
Longitude
66.52983°
Altitude
9,913.721 km
Speed
5.899 km/s
True Right ascension
02h 13m 41s
True Declination
0° 00' 01"
Sunlit
Object was in daylight at epoch
Visualization orbit readout
Latitude
Unknown
Longitude
Unknown
Altitude
Unknown
Speed
Unknown
Apparent Right ascension
Unknown
Apparent Declination
Unknown
Sunlit
N/A
Visualization observer readout
Local Sidereal Time
21:40:13
Azimuth
Unknown
Elevation
Unknown
Doppler factor
Unknown
Orbital elements
Apogee altitude
34,974.723 km
Perigee altitude
8,683.044 km
Semi-major axis
28,207.02 km
Eccentricity
0.46605
Inclination
13.3013°
RAAN
33.442°
Arg. of periapsis
320.186°
True anomaly
39.79168°
Mean anomaly
13.5081°
Eccentric anomaly
24.64144°
Mean motion
0.45815 °/min
Orbital period
785.77 mins
BSTAR
0
Loading maneuver chart data...
Computing Atmospheric mass density...

Documentation

Showing up to 5 results
|